Regional Weather Roundup
Issued by NWS Sioux Falls, SD

Home | Current Version | Previous Version | Text Only | Print | Product List | Glossary On
Versions: 1 2 3 4 5 6 7 8 9 10 11 12 13 14 15 16 17 18 19 20 21 22 23 24 25 26 27 28 29 30 31 32 33 34 35 36 37 38 39 40 41 42 43 44 45 46 47 48 49 50
000
ASUS43 KFSD 190002
RWRFSD

WEATHER ROUNDUP FOR SE SOUTH DAKOTA/SW MINNESOTA/NW IOWA
NATIONAL WEATHER SERVICE SIOUX FALLS SD
600 PM CST WED JAN 18 2017

NOTE: "FAIR" INDICATES FEW OR NO CLOUDS BELOW 12,000 FEET WITH NO
SIGNIFICANT WEATHER AND OR OBSTRUCTIONS TO VISIBILITY.


SDZ038>040-050-052>070-190100-
SOUTHEAST SOUTH DAKOTA

CITY           SKY/WX    TMP DP  RH WIND       PRES   REMARKS
BROOKINGS      CLOUDY    34  31  88 SE9       29.77S WCI  27
CHAMBERLAIN    CLOUDY    40  31  71 E5        29.69F
6HR MIN TEMP:  40; 6HR MAX TEMP:  46;

HURON          CLOUDY    32  28  85 E3        29.73F
6HR MIN TEMP:  30; 6HR MAX TEMP:  39;

MADISON          N/A     36  36 100 MISG        N/A
MITCHELL       CLEAR     40  33  76 SE7       29.74F
6HR MIN TEMP:  39; 6HR MAX TEMP:  47;

SIOUX FALLS    PTCLDY    41  38  89 S10       29.80S
6HR MIN TEMP:  40; 6HR MAX TEMP:  45;

WINNER         FAIR      43  26  51 SE10      29.69F
YANKTON        CLEAR     41  36  81 SE6       29.79S
$$

MNZ071-072-080-081-089-090-097-098-190100-
SOUTHWEST MINNESOTA

CITY           SKY/WX    TMP DP  RH WIND       PRES   REMARKS
FAIRMONT       CLEAR     37  35  92 S14       29.87S
JACKSON        PTCLDY    36  34  93 S10       29.85F
LUVERNE        CLEAR     37  34  87 CALM      29.81F
MARSHALL       CLEAR     37  33  85 SW14      29.78F
6HR MIN TEMP:  37; 6HR MAX TEMP:  43;

MONTEVIDEO     CLOUDY    36  30  80 S8        29.79F
PIPESTONE      CLOUDY    37  36  93 S12       29.78F
REDWOOD FALLS  CLEAR     35  30  82 S9        29.81S WCI  28
TRACY          CLEAR     38  36  91 S16G23    29.79S
WINDOM         CLEAR     39  37  93 S7        29.83S
WORTHINGTON    CLEAR     39  36  89 S16       29.82F
$$

IAZ001>003-012>014-020>022-031-032-NEZ013-014-SDZ071-190100-
NORTHWEST IOWA

CITY           SKY/WX    TMP DP  RH WIND       PRES   REMARKS
CHEROKEE       CLEAR     38  37  97 S7        29.87F
DENISON        CLEAR     41  37  87 S13       29.87S
ESTHERVILLE    CLEAR     35  35 100 S9        29.86S WCI  28
LE MARS        CLEAR     41  37  87 SE9G15    29.85F
ORANGE CITY    CLEAR     39  37  93 S7        29.84S
SHELDON        CLEAR     39  39 100 S13       29.83S
SIOUX CITY     CLEAR     42  36  79 E5        29.86S
6HR MIN TEMP:  42; 6HR MAX TEMP:  51;

SPENCER        CLEAR     38  36  92 S10       29.87S
6HR MIN TEMP:  37; 6HR MAX TEMP:  43;

STORM LAKE     CLEAR     37  36  93 S10       29.88F
$$

ABBREVIATIONS USED IN REMARKS
   TC - TEMPERATURE IN CELSIUS
  WCI - WIND CHILL INDEX
   HX - HEAT INDEX
  VSB - VISIBILITY




USA.gov is the U.S. government's official web portal to all federal, state and local government web resources and services.